owner,sensor,date,latitude,longitude,vertical_datum,direction_of_sea_water_velocity,sea_water_speed,upward_sea_water_velocity,qcFlag 
TABS,ioos:station:wmo:42051:1,2006-01-01T01:00:00Z,29.6350,-93.6417,2.0,289.9753236,6.001008249,-99999.0,'11133222,11111222,99999999' 
TABS,ioos:station:wmo:42051:1,2006-01-01T01:30:00Z,29.6350,-93.6417,2.0,297.0044485,7.003570518,-99999.0,'11133222,11111222,99999999' 
TABS,ioos:station:wmo:42051:1,2006-01-01T02:00:00Z,29.6350,-93.6417,2.0,297.078109,3.998249617,-99999.0,'11133222,11111222,99999999' 
TABS,ioos:station:wmo:42051:1,2006-01-01T02:30:00Z,29.6350,-93.6417,2.0,282.0071011,4.99936996,-99999.0,'11133222,11111222,99999999' 
TABS,ioos:station:wmo:42051:1,2006-01-01T03:00:00Z,29.6350,-93.6417,2.0,308.0159925,5.0009999,-99999.0,'11133222,11111222,99999999' 
TABS,ioos:station:wmo:42051:1,2006-01-01T03:30:00Z,29.6350,-93.6417,2.0,285.0795196,3.997649309,-99999.0,'11133222,11111222,99999999' 
TABS,ioos:station:wmo:42051:1,2006-01-01T04:00:00Z,29.6350,-93.6417,2.0,280.9544579,5.999308293,-99999.0,'11133222,11111222,99999999' 
TABS,ioos:station:wmo:42051:1,2006-01-01T04:30:00Z,29.6350,-93.6417,2.0,310.9976672,8.002755775,-99999.0,'11133222,11111222,99999999' 
TABS,ioos:station:wmo:42051:1,2006-01-01T05:00:00Z,29.6350,-93.6417,2.0,284.021188,8.998072016,-99999.0,'11133222,11111222,99999999' 
TABS,ioos:station:wmo:42051:1,2006-01-01T05:30:00Z,29.6350,-93.6417,2.0,305.0527128,6.999521412,-99999.0,'11133222,11111222,99999999' 
TABS,ioos:station:wmo:42051:1,2006-01-01T06:00:00Z,29.6350,-93.6417,2.0,288.0004534,9.999409983,-99999.0,'11133222,11111222,99999999' 
TABS,ioos:station:wmo:42051:1,2006-01-01T06:30:00Z,29.6350,-93.6417,2.0,300.0010785,9.999779998,-99999.0,'11133222,11111222,99999999' 
TABS,ioos:station:wmo:42051:1,2006-01-01T07:00:00Z,29.6350,-93.6417,2.0,288.0004534,9.999409983,-99999.0,'11133222,11111222,99999999' 
TABS,ioos:station:wmo:42051:1,2006-01-01T07:30:00Z,29.6350,-93.6417,2.0,265.9854128,11.99943749,-99999.0,'11111222,11111222,99999999' 
TABS,ioos:station:wmo:42051:1,2006-01-01T08:00:00Z,29.6350,-93.6417,2.0,254.9910649,11.00542593,-99999.0,'11111222,11111222,99999999' 
TABS,ioos:station:wmo:42051:1,2006-01-01T08:30:00Z,29.6350,-93.6417,2.0,250.9911323,12.00460745,-99999.0,'11111222,11111222,99999999' 
TABS,ioos:station:wmo:42051:1,2006-01-01T09:00:00Z,29.6350,-93.6417,2.0,249.0107331,10.99984091,-99999.0,'11111222,11111222,99999999' 
TABS,ioos:station:wmo:42051:1,2006-01-01T09:30:00Z,29.6350,-93.6417,2.0,244.9953296,11.00106358,-99999.0,'11111222,11111222,99999999' 
TABS,ioos:station:wmo:42051:1,2006-01-01T10:00:00Z,29.6350,-93.6417,2.0,254.9910649,11.00542593,-99999.0,'11111222,11111222,99999999' 
TABS,ioos:station:wmo:42051:1,2006-01-01T10:30:00Z,29.6350,-93.6417,2.0,244.9953296,11.00106358,-99999.0,'11111222,11111222,99999999' 
TABS,ioos:station:wmo:42051:1,2006-01-01T11:00:00Z,29.6350,-93.6417,2.0,230.0140735,11.0022634,-99999.0,'11111222,11111222,99999999' 
TABS,ioos:station:wmo:42051:1,2006-01-01T11:30:00Z,29.6350,-93.6417,2.0,242.0249146,9.998249847,-99999.0,'11133222,11111222,99999999' 
TABS,ioos:station:wmo:42051:1,2006-01-01T12:00:00Z,29.6350,-93.6417,2.0,238.9594571,8.99853877,-99999.0,'11133222,11111222,99999999' 
TABS,ioos:station:wmo:42051:1,2006-01-01T12:30:00Z,29.6350,-93.6417,2.0,250.9911323,12.00460745,-99999.0,'11111222,11111222,99999999' 
TABS,ioos:station:wmo:42051:1,2006-01-01T13:00:00Z,29.6350,-93.6417,2.0,238.9594571,8.99853877,-99999.0,'11133222,11111222,99999999' 
TABS,ioos:station:wmo:42051:1,2006-01-01T13:30:00Z,29.6350,-93.6417,2.0,242.0249146,9.998249847,-99999.0,'11133222,11111222,99999999' 
TABS,ioos:station:wmo:42051:1,2006-01-01T14:00:00Z,29.6350,-93.6417,2.0,244.9728502,6.996942189,-99999.0,'11133222,11111222,99999999' 
TABS,ioos:station:wmo:42051:1,2006-01-01T14:30:00Z,29.6350,-93.6417,2.0,287.0368861,6.997042232,-99999.0,'11133222,11111222,99999999' 
TABS,ioos:station:wmo:42051:1,2006-01-01T15:00:00Z,29.6350,-93.6417,2.0,305.0527128,6.999521412,-99999.0,'11133222,11111222,99999999' 
TABS,ioos:station:wmo:42051:1,2006-01-01T15:30:00Z,29.6350,-93.6417,2.0,291.0333119,8.999605547,-99999.0,'11133222,11111222,99999999' 
TABS,ioos:station:wmo:42051:1,2006-01-01T16:00:00Z,29.6350,-93.6417,2.0,308.98554,10.99949544,-99999.0,'11111222,11111222,99999999' 
TABS,ioos:station:wmo:42051:1,2006-01-01T16:30:00Z,29.6350,-93.6417,2.0,315.0003157,12.99662264,-99999.0,'11111222,11111222,99999999' 
TABS,ioos:station:wmo:42051:1,2006-01-01T17:00:00Z,29.6350,-93.6417,2.0,315.0003157,9.998489886,-99999.0,'11133222,11111222,99999999' 
TABS,ioos:station:wmo:42051:1,2006-01-01T17:30:00Z,29.6350,-93.6417,2.0,309.0043767,12.99701504,-99999.0,'11111222,11111222,99999999' 
TABS,ioos:station:wmo:42051:1,2006-01-01T18:00:00Z,29.6350,-93.6417,2.0,312.0071907,13.00021538,-99999.0,'11111222,11111222,99999999' 
TABS,ioos:station:wmo:42051:1,2006-01-01T18:30:00Z,29.6350,-93.6417,2.0,323.0015002,16.00204049,-99999.0,'11111222,11111222,99999999' 
TABS,ioos:station:wmo:42051:1,2006-01-01T19:00:00Z,29.6350,-93.6417,2.0,293.9868112,16.99791164,-99999.0,'11111222,11111222,99999999' 
TABS,ioos:station:wmo:42051:1,2006-01-01T19:30:00Z,29.6350,-93.6417,2.0,299.9939178,16.0031122,-99999.0,'11111222,11111222,99999999' 
TABS,ioos:station:wmo:42051:1,2006-01-01T20:00:00Z,29.6350,-93.6417,2.0,293.9868112,16.99791164,-99999.0,'11111222,11111222,99999999' 
TABS,ioos:station:wmo:42051:1,2006-01-01T20:30:00Z,29.6350,-93.6417,2.0,292.9920806,16.00110621,-99999.0,'11111222,11111222,99999999' 
TABS,ioos:station:wmo:42051:1,2006-01-01T21:00:00Z,29.6350,-93.6417,2.0,291.0214264,14.99814655,-99999.0,'11111222,11111222,99999999' 
TABS,ioos:station:wmo:42051:1,2006-01-01T21:30:00Z,29.6350,-93.6417,2.0,281.0013323,12.00052082,-99999.0,'11111222,11111222,99999999' 
TABS,ioos:station:wmo:42051:1,2006-01-01T22:00:00Z,29.6350,-93.6417,2.0,285.020996,12.00000833,-99999.0,'11111222,11111222,99999999' 
TABS,ioos:station:wmo:42051:1,2006-01-01T22:30:00Z,29.6350,-93.6417,2.0,281.0013323,12.00052082,-99999.0,'11111222,11111222,99999999' 
TABS,ioos:station:wmo:42051:1,2006-01-01T23:00:00Z,29.6350,-93.6417,2.0,254.9910649,11.00542593,-99999.0,'11111222,11111222,99999999' 
TABS,ioos:station:wmo:42051:1,2006-01-01T23:30:00Z,29.6350,-93.6417,2.0,256.9888788,7.995254843,-99999.0,'11133222,11111222,99999999' 
TABS,ioos:station:wmo:42051:1,2006-01-02T00:00:00Z,29.6350,-93.6417,2.0,244.9728502,6.996942189,-99999.0,'11133222,11111222,99999999' 
TABS,ioos:station:wmo:42051:1,2006-01-02T00:30:00Z,29.6350,-93.6417,2.0,211.9949786,6.00170809,-99999.0,'11133222,11111222,99999999' 
TABS,ioos:station:wmo:42051:1,2006-01-02T01:00:00Z,29.6350,-93.6417,2.0,218.0153611,5.0009999,-99999.0,'11133222,11111222,99999999' 
TABS,ioos:station:wmo:42051:1,2006-01-02T01:30:00Z,29.6350,-93.6417,2.0,224.9996843,4.002224382,-99999.0,'11133222,11111222,99999999' 
TABS,ioos:station:wmo:42051:1,2006-01-02T02:00:00Z,29.6350,-93.6417,2.0,214.9213258,4.000312488,-99999.0,'11133222,11111222,99999999' 
TABS,ioos:station:wmo:42051:1,2006-01-02T02:30:00Z,29.6350,-93.6417,2.0,200.0643741,3.002215848,-99999.0,'11133222,11111222,99999999' 
TABS,ioos:station:wmo:42051:1,2006-01-02T03:00:00Z,29.6350,-93.6417,2.0,179.9997895,6.0,-99999.0,'11133222,11111222,99999999' 
TABS,ioos:station:wmo:42051:1,2006-01-02T03:30:00Z,29.6350,-93.6417,2.0,224.9996843,4.002224382,-99999.0,'11133222,11111222,99999999' 
TABS,ioos:station:wmo:42051:1,2006-01-02T04:00:00Z,29.6350,-93.6417,2.0,218.0153611,5.0009999,-99999.0,'11133222,11111222,99999999' 
TABS,ioos:station:wmo:42051:1,2006-01-02T04:30:00Z,29.6350,-93.6417,2.0,207.0774776,3.998249617,-99999.0,'11133222,11111222,99999999' 
TABS,ioos:station:wmo:42051:1,2006-01-02T05:00:00Z,29.6350,-93.6417,2.0,179.9997895,4.0,-99999.0,'11133222,11111222,99999999' 
TABS,ioos:station:wmo:42051:1,2006-01-02T05:30:00Z,29.6350,-93.6417,2.0,200.0643741,3.002215848,-99999.0,'11133222,11111222,99999999' 
TABS,ioos:station:wmo:42051:1,2006-01-02T06:00:00Z,29.6350,-93.6417,2.0,192.0064698,4.99936996,-99999.0,'11133222,11111222,99999999' 
TABS,ioos:station:wmo:42051:1,2006-01-02T06:30:00Z,29.6350,-93.6417,2.0,159.028128,5.001299831,-99999.0,'11133222,11111222,99999999' 
TABS,ioos:station:wmo:42051:1,2006-01-02T07:00:00Z,29.6350,-93.6417,2.0,179.9997895,4.0,-99999.0,'11133222,11111222,99999999' 
TABS,ioos:station:wmo:42051:1,2006-01-02T07:30:00Z,29.6350,-93.6417,2.0,170.9924563,6.004040306,-99999.0,'11133222,11111222,99999999' 
TABS,ioos:station:wmo:42051:1,2006-01-02T08:00:00Z,29.6350,-93.6417,2.0,192.0064698,4.99936996,-99999.0,'11133222,11111222,99999999' 
TABS,ioos:station:wmo:42051:1,2006-01-02T08:30:00Z,29.6350,-93.6417,2.0,190.9538266,5.999308293,-99999.0,'11133222,11111222,99999999' 
TABS,ioos:station:wmo:42051:1,2006-01-02T09:00:00Z,29.6350,-93.6417,2.0,192.0064698,4.99936996,-99999.0,'11133222,11111222,99999999' 
TABS,ioos:station:wmo:42051:1,2006-01-02T09:30:00Z,29.6350,-93.6417,2.0,194.9911286,8.002362151,-99999.0,'11133222,11111222,99999999' 
TABS,ioos:station:wmo:42051:1,2006-01-02T10:00:00Z,29.6350,-93.6417,2.0,192.0064698,9.998739921,-99999.0,'11133222,11111222,99999999' 
TABS,ioos:station:wmo:42051:1,2006-01-02T10:30:00Z,29.6350,-93.6417,2.0,204.0024833,13.00455689,-99999.0,'11111222,11111222,99999999' 
TABS,ioos:station:wmo:42051:1,2006-01-02T11:00:00Z,29.6350,-93.6417,2.0,197.0210209,14.99692302,-99999.0,'11111222,11111222,99999999' 
TABS,ioos:station:wmo:42051:1,2006-01-02T11:30:00Z,29.6350,-93.6417,2.0,190.9858454,17.00157934,-99999.0,'11111222,11111222,99999999' 
TABS,ioos:station:wmo:42051:1,2006-01-02T12:00:00Z,29.6350,-93.6417,2.0,173.9892196,19.00447579,-99999.0,'11111222,11111222,99999999' 
TABS,ioos:station:wmo:42051:1,2006-01-02T12:30:00Z,29.6350,-93.6417,2.0,161.9830928,12.99730741,-99999.0,'11111222,11111222,99999999' 
TABS,ioos:station:wmo:42051:1,2006-01-02T13:00:00Z,29.6350,-93.6417,2.0,148.9902637,15.00441602,-99999.0,'11111222,11111222,99999999' 
TABS,ioos:station:wmo:42051:1,2006-01-02T13:30:00Z,29.6350,-93.6417,2.0,139.9912164,13.00350722,-99999.0,'11111222,11111222,99999999' 
TABS,ioos:station:wmo:42051:1,2006-01-02T14:00:00Z,29.6350,-93.6417,2.0,145.9820034,15.99781548,-99999.0,'11111222,11111222,99999999' 
TABS,ioos:station:wmo:42051:1,2006-01-02T14:30:00Z,29.6350,-93.6417,2.0,145.9820034,15.99781548,-99999.0,'11111222,11111222,99999999' 
TABS,ioos:station:wmo:42051:1,2006-01-02T15:00:00Z,29.6350,-93.6417,2.0,144.0055897,14.00363524,-99999.0,'11111222,11111222,99999999' 
TABS,ioos:station:wmo:42051:1,2006-01-02T15:30:00Z,29.6350,-93.6417,2.0,134.9998948,14.00071427,-99999.0,'11111222,11111222,99999999' 
TABS,ioos:station:wmo:42051:1,2006-01-02T16:00:00Z,29.6350,-93.6417,2.0,134.9998948,12.99662264,-99999.0,'11111222,11111222,99999999' 
TABS,ioos:station:wmo:42051:1,2006-01-02T16:30:00Z,29.6350,-93.6417,2.0,148.9596676,8.99853877,-99999.0,'11133222,11111222,99999999' 
TABS,ioos:station:wmo:42051:1,2006-01-02T17:00:00Z,29.6350,-93.6417,2.0,134.9998948,12.99662264,-99999.0,'11111222,11111222,99999999' 
TABS,ioos:station:wmo:42051:1,2006-01-02T17:30:00Z,29.6350,-93.6417,2.0,148.9596676,8.99853877,-99999.0,'11133222,11111222,99999999' 
TABS,ioos:station:wmo:42051:1,2006-01-02T18:00:00Z,29.6350,-93.6417,2.0,134.9998948,9.998489886,-99999.0,'11133222,11111222,99999999' 
TABS,ioos:station:wmo:42051:1,2006-01-02T18:30:00Z,29.6350,-93.6417,2.0,179.9997895,8.0,-99999.0,'11133222,11111222,99999999' 
TABS,ioos:station:wmo:42051:1,2006-01-02T19:00:00Z,29.6350,-93.6417,2.0,168.0029183,8.996493761,-99999.0,'11133222,11111222,99999999' 
TABS,ioos:station:wmo:42051:1,2006-01-02T19:30:00Z,29.6350,-93.6417,2.0,179.9997895,8.0,-99999.0,'11133222,11111222,99999999' 
TABS,ioos:station:wmo:42051:1,2006-01-02T20:00:00Z,29.6350,-93.6417,2.0,216.0036736,8.999027725,-99999.0,'11133222,11111222,99999999' 
TABS,ioos:station:wmo:42051:1,2006-01-02T20:30:00Z,29.6350,-93.6417,2.0,218.9849087,10.99949544,-99999.0,'11111222,11111222,99999999' 
TABS,ioos:station:wmo:42051:1,2006-01-02T21:00:00Z,29.6350,-93.6417,2.0,238.9754246,12.99959999,-99999.0,'11111222,11111222,99999999' 
TABS,ioos:station:wmo:42051:1,2006-01-02T21:30:00Z,29.6350,-93.6417,2.0,245.9983542,11.99733304,-99999.0,'11111222,11111222,99999999' 
TABS,ioos:station:wmo:42051:1,2006-01-02T22:00:00Z,29.6350,-93.6417,2.0,224.9996843,11.00258152,-99999.0,'11111222,11111222,99999999' 
TABS,ioos:station:wmo:42051:1,2006-01-02T22:30:00Z,29.6350,-93.6417,2.0,232.9838715,10.99603565,-99999.0,'11111222,11111222,99999999' 
TABS,ioos:station:wmo:42051:1,2006-01-02T23:00:00Z,29.6350,-93.6417,2.0,224.9996843,11.00258152,-99999.0,'11111222,11111222,99999999' 
TABS,ioos:station:wmo:42051:1,2006-01-02T23:30:00Z,29.6350,-93.6417,2.0,216.0036736,8.999027725,-99999.0,'11133222,11111222,99999999' 
TABS,ioos:station:wmo:42051:1,2006-01-03T00:00:00Z,29.6350,-93.6417,2.0,221.9821718,8.999805553,-99999.0,'11133222,11111222,99999999' 
TABS,ioos:station:wmo:42051:1,2006-01-03T00:30:00Z,29.6350,-93.6417,2.0,200.0045975,9.003221646,-99999.0,'11133222,11111222,99999999' 
TABS,ioos:station:wmo:42051:1,2006-01-03T01:00:00Z,29.6350,-93.6417,2.0,200.0045975,9.003221646,-99999.0,'11133222,11111222,99999999' 
TABS,ioos:station:wmo:42051:1,2006-01-03T01:30:00Z,29.6350,-93.6417,2.0,192.0064698,9.998739921,-99999.0,'11133222,11111222,99999999' 
TABS,ioos:station:wmo:42051:1,2006-01-03T02:00:00Z,29.6350,-93.6417,2.0,179.9997895,10.0,-99999.0,'11111222,11111222,99999999' 
TABS,ioos:station:wmo:42051:1,2006-01-03T02:30:00Z,29.6350,-93.6417,2.0,175.9847114,10.9969905,-99999.0,'11111222,11111222,99999999' 
TABS,ioos:station:wmo:42051:1,2006-01-03T03:00:00Z,29.6350,-93.6417,2.0,166.9890892,7.995254843,-99999.0,'11133222,11111222,99999999' 
TABS,ioos:station:wmo:42051:1,2006-01-03T03:30:00Z,29.6350,-93.6417,2.0,166.9890892,7.995254843,-99999.0,'11133222,11111222,99999999' 
TABS,ioos:station:wmo:42051:1,2006-01-03T04:00:00Z,29.6350,-93.6417,2.0,157.9749951,9.999769997,-99999.0,'11133222,11111222,99999999' 
TABS,ioos:station:wmo:42051:1,2006-01-03T04:30:00Z,29.6350,-93.6417,2.0,157.9749951,9.999769997,-99999.0,'11133222,11111222,99999999' 
TABS,ioos:station:wmo:42051:1,2006-01-03T05:00:00Z,29.6350,-93.6417,2.0,161.0012063,9.000277773,-99999.0,'11133222,11111222,99999999' 
TABS,ioos:station:wmo:42051:1,2006-01-03T05:30:00Z,29.6350,-93.6417,2.0,141.0380475,7.999331222,-99999.0,'11133222,11111222,99999999' 
TABS,ioos:station:wmo:42051:1,2006-01-03T06:00:00Z,29.6350,-93.6417,2.0,163.9757174,9.998484885,-99999.0,'11133222,11111222,99999999' 
TABS,ioos:station:wmo:42051:1,2006-01-03T06:30:00Z,29.6350,-93.6417,2.0,166.9890892,7.995254843,-99999.0,'11133222,11111222,99999999' 
TABS,ioos:station:wmo:42051:1,2006-01-03T07:00:00Z,29.6350,-93.6417,2.0,179.9997895,7.0,-99999.0,'11133222,11111222,99999999' 
TABS,ioos:station:wmo:42051:1,2006-01-03T07:30:00Z,29.6350,-93.6417,2.0,187.9857785,8.997255137,-99999.0,'11133222,11111222,99999999' 
TABS,ioos:station:wmo:42051:1,2006-01-03T08:00:00Z,29.6350,-93.6417,2.0,201.0326805,8.999605547,-99999.0,'11133222,11111222,99999999' 
TABS,ioos:station:wmo:42051:1,2006-01-03T08:30:00Z,29.6350,-93.6417,2.0,220.9970358,8.002755775,-99999.0,'11133222,11111222,99999999' 
TABS,ioos:station:wmo:42051:1,2006-01-03T09:00:00Z,29.6350,-93.6417,2.0,236.0093385,8.997360724,-99999.0,'11133222,11111222,99999999' 
TABS,ioos:station:wmo:42051:1,2006-01-03T09:30:00Z,29.6350,-93.6417,2.0,256.9888788,7.995254843,-99999.0,'11133222,11111222,99999999' 
TABS,ioos:station:wmo:42051:1,2006-01-03T10:00:00Z,29.6350,-93.6417,2.0,258.0027078,8.996493761,-99999.0,'11133222,11111222,99999999' 
TABS,ioos:station:wmo:42051:1,2006-01-03T10:30:00Z,29.6350,-93.6417,2.0,230.0045228,11.99584095,-99999.0,'11111222,11111222,99999999' 
TABS,ioos:station:wmo:42051:1,2006-01-03T11:00:00Z,29.6350,-93.6417,2.0,230.0045228,11.99584095,-99999.0,'11111222,11111222,99999999' 
TABS,ioos:station:wmo:42051:1,2006-01-03T11:30:00Z,29.6350,-93.6417,2.0,224.9996843,14.00071427,-99999.0,'11111222,11111222,99999999' 
TABS,ioos:station:wmo:42051:1,2006-01-03T12:00:00Z,29.6350,-93.6417,2.0,224.9996843,12.99662264,-99999.0,'11111222,11111222,99999999' 
TABS,ioos:station:wmo:42051:1,2006-01-03T12:30:00Z,29.6350,-93.6417,2.0,212.0094365,13.99833204,-99999.0,'11111222,11111222,99999999' 
TABS,ioos:station:wmo:42051:1,2006-01-03T13:00:00Z,29.6350,-93.6417,2.0,219.0037453,12.99701504,-99999.0,'11111222,11111222,99999999' 
TABS,ioos:station:wmo:42051:1,2006-01-03T13:30:00Z,29.6350,-93.6417,2.0,206.9985295,12.9963995,-99999.0,'11111222,11111222,99999999' 
TABS,ioos:station:wmo:42051:1,2006-01-03T14:00:00Z,29.6350,-93.6417,2.0,210.0004472,9.999779998,-99999.0,'11133222,11111222,99999999' 
TABS,ioos:station:wmo:42051:1,2006-01-03T14:30:00Z,29.6350,-93.6417,2.0,218.0153611,10.0019998,-99999.0,'11111222,11111222,99999999' 
TABS,ioos:station:wmo:42051:1,2006-01-03T15:00:00Z,29.6350,-93.6417,2.0,215.0045295,10.99982727,-99999.0,'11111222,11111222,99999999' 
TABS,ioos:station:wmo:42051:1,2006-01-03T15:30:00Z,29.6350,-93.6417,2.0,241.9608661,7.998824914,-99999.0,'11133222,11111222,99999999' 
TABS,ioos:station:wmo:42051:1,2006-01-03T16:00:00Z,29.6350,-93.6417,2.0,255.0101839,6.998121176,-99999.0,'11133222,11111222,99999999' 
TABS,ioos:station:wmo:42051:1,2006-01-03T16:30:00Z,29.6350,-93.6417,2.0,280.9544579,5.999308293,-99999.0,'11133222,11111222,99999999' 
TABS,ioos:station:wmo:42051:1,2006-01-03T17:00:00Z,29.6350,-93.6417,2.0,289.9753236,6.001008249,-99999.0,'11133222,11111222,99999999' 
TABS,ioos:station:wmo:42051:1,2006-01-03T17:30:00Z,29.6350,-93.6417,2.0,297.0208054,9.002694041,-99999.0,'11133222,11111222,99999999' 
TABS,ioos:station:wmo:42051:1,2006-01-03T18:00:00Z,29.6350,-93.6417,2.0,315.0003157,7.000357134,-99999.0,'11133222,11111222,99999999' 
TABS,ioos:station:wmo:42051:1,2006-01-03T18:30:00Z,29.6350,-93.6417,2.0,315.0003157,8.004448763,-99999.0,'11133222,11111222,99999999' 
TABS,ioos:station:wmo:42051:1,2006-01-03T19:00:00Z,29.6350,-93.6417,2.0,320.0147048,11.0022634,-99999.0,'11111222,11111222,99999999' 
TABS,ioos:station:wmo:42051:1,2006-01-03T19:30:00Z,29.6350,-93.6417,2.0,319.9583454,8.999788886,-99999.0,'11133222,11111222,99999999' 
TABS,ioos:station:wmo:42051:1,2006-01-03T20:00:00Z,29.6350,-93.6417,2.0,326.0056718,12.00110828,-99999.0,'11111222,11111222,99999999' 
TABS,ioos:station:wmo:42051:1,2006-01-03T20:30:00Z,29.6350,-93.6417,2.0,315.0003157,11.00258152,-99999.0,'11111222,11111222,99999999' 
TABS,ioos:station:wmo:42051:1,2006-01-03T21:00:00Z,29.6350,-93.6417,2.0,326.0056718,12.00110828,-99999.0,'11111222,11111222,99999999' 
TABS,ioos:station:wmo:42051:1,2006-01-03T21:30:00Z,29.6350,-93.6417,2.0,328.976056,12.99959999,-99999.0,'11111222,11111222,99999999' 
TABS,ioos:station:wmo:42051:1,2006-01-03T22:00:00Z,29.6350,-93.6417,2.0,327.017896,11.00331768,-99999.0,'11111222,11111222,99999999' 
TABS,ioos:station:wmo:42051:1,2006-01-03T22:30:00Z,29.6350,-93.6417,2.0,335.0126718,12.99648029,-99999.0,'11111222,11111222,99999999' 
TABS,ioos:station:wmo:42051:1,2006-01-03T23:00:00Z,29.6350,-93.6417,2.0,334.995961,11.00106358,-99999.0,'11111222,11111222,99999999' 
TABS,ioos:station:wmo:42051:1,2006-01-03T23:30:00Z,29.6350,-93.6417,2.0,327.017896,11.00331768,-99999.0,'11111222,11111222,99999999' 
TABS,ioos:station:wmo:42051:1,2006-01-04T00:00:00Z,29.6350,-93.6417,2.0,341.0016272,9.000277773,-99999.0,'11133222,11111222,99999999' 
TABS,ioos:station:wmo:42051:1,2006-01-04T00:30:00Z,29.6350,-93.6417,2.0,330.0186412,6.003332408,-99999.0,'11133222,11111222,99999999' 
TABS,ioos:station:wmo:42051:1,2006-01-04T01:00:00Z,29.6350,-93.6417,2.0,334.9734816,6.996942189,-99999.0,'11133222,11111222,99999999' 
TABS,ioos:station:wmo:42051:1,2006-01-04T01:30:00Z,29.6350,-93.6417,2.0,349.9723251,4.996328652,-99999.0,'11133222,11111222,99999999' 
TABS,ioos:station:wmo:42051:1,2006-01-04T02:00:00Z,29.6350,-93.6417,2.0,90.0,3.0,-99999.0,'11133222,11111222,99999999' 
TABS,ioos:station:wmo:42051:1,2006-01-04T02:30:00Z,29.6350,-93.6417,2.0,110.0645846,3.002215848,-99999.0,'11133222,11111222,99999999' 
TABS,ioos:station:wmo:42051:1,2006-01-04T03:00:00Z,29.6350,-93.6417,2.0,79.97211468,4.996328652,-99999.0,'11133222,11111222,99999999' 
TABS,ioos:station:wmo:42051:1,2006-01-04T03:30:00Z,29.6350,-93.6417,2.0,90.0,4.0,-99999.0,'11133222,11111222,99999999' 
TABS,ioos:station:wmo:42051:1,2006-01-04T04:00:00Z,29.6350,-93.6417,2.0,112.9726676,4.996248593,-99999.0,'11133222,11111222,99999999' 
TABS,ioos:station:wmo:42051:1,2006-01-04T04:30:00Z,29.6350,-93.6417,2.0,90.0,4.0,-99999.0,'11133222,11111222,99999999' 
TABS,ioos:station:wmo:42051:1,2006-01-04T05:00:00Z,29.6350,-93.6417,2.0,102.0066802,4.99936996,-99999.0,'11133222,11111222,99999999' 
TABS,ioos:station:wmo:42051:1,2006-01-04T05:30:00Z,29.6350,-93.6417,2.0,107.0364652,6.997042232,-99999.0,'11133222,11111222,99999999' 
TABS,ioos:station:wmo:42051:1,2006-01-04T06:00:00Z,29.6350,-93.6417,2.0,90.0,4.0,-99999.0,'11133222,11111222,99999999' 
TABS,ioos:station:wmo:42051:1,2006-01-04T06:30:00Z,29.6350,-93.6417,2.0,117.0040276,7.003570518,-99999.0,'11133222,11111222,99999999' 
TABS,ioos:station:wmo:42051:1,2006-01-04T07:00:00Z,29.6350,-93.6417,2.0,119.9934969,8.001556099,-99999.0,'11133222,11111222,99999999' 
TABS,ioos:station:wmo:42051:1,2006-01-04T07:30:00Z,29.6350,-93.6417,2.0,353.9762315,6.003149174,-99999.0,'11133222,11111222,99999999' 
TABS,ioos:station:wmo:42051:1,2006-01-04T08:00:00Z,29.6350,-93.6417,2.0,169.9719042,4.996328652,-99999.0,'11133222,11111222,99999999' 
TABS,ioos:station:wmo:42051:1,2006-01-04T08:30:00Z,29.6350,-93.6417,2.0,202.9724572,4.996248593,-99999.0,'11133222,11111222,99999999' 
TABS,ioos:station:wmo:42051:1,2006-01-04T09:00:00Z,29.6350,-93.6417,2.0,179.9997895,3.0,-99999.0,'11133222,11111222,99999999' 
TABS,ioos:station:wmo:42051:1,2006-01-04T09:30:00Z,29.6350,-93.6417,2.0,199.9746922,6.001008249,-99999.0,'11133222,11111222,99999999' 
TABS,ioos:station:wmo:42051:1,2006-01-04T10:00:00Z,29.6350,-93.6417,2.0,207.0038171,7.003570518,-99999.0,'11133222,11111222,99999999' 
TABS,ioos:station:wmo:42051:1,2006-01-04T10:30:00Z,29.6350,-93.6417,2.0,201.0326805,8.999605547,-99999.0,'11133222,11111222,99999999' 
TABS,ioos:station:wmo:42051:1,2006-01-04T11:00:00Z,29.6350,-93.6417,2.0,207.020174,9.002694041,-99999.0,'11133222,11111222,99999999' 
TABS,ioos:station:wmo:42051:1,2006-01-04T11:30:00Z,29.6350,-93.6417,2.0,213.0050998,12.99755362,-99999.0,'11111222,11111222,99999999' 
TABS,ioos:station:wmo:42051:1,2006-01-04T12:00:00Z,29.6350,-93.6417,2.0,212.0094365,13.99833204,-99999.0,'11111222,11111222,99999999' 
TABS,ioos:station:wmo:42051:1,2006-01-04T12:30:00Z,29.6350,-93.6417,2.0,206.9985295,12.9963995,-99999.0,'11111222,11111222,99999999' 
TABS,ioos:station:wmo:42051:1,2006-01-04T13:00:00Z,29.6350,-93.6417,2.0,210.0004472,9.999779998,-99999.0,'11133222,11111222,99999999' 
TABS,ioos:station:wmo:42051:1,2006-01-04T13:30:00Z,29.6350,-93.6417,2.0,204.0024833,13.00455689,-99999.0,'11111222,11111222,99999999' 
TABS,ioos:station:wmo:42051:1,2006-01-04T14:00:00Z,29.6350,-93.6417,2.0,192.0064698,9.998739921,-99999.0,'11133222,11111222,99999999' 
TABS,ioos:station:wmo:42051:1,2006-01-04T14:30:00Z,29.6350,-93.6417,2.0,187.9857785,8.997255137,-99999.0,'11133222,11111222,99999999' 
TABS,ioos:station:wmo:42051:1,2006-01-04T15:00:00Z,29.6350,-93.6417,2.0,187.9778954,7.997405829,-99999.0,'11133222,11111222,99999999' 
TABS,ioos:station:wmo:42051:1,2006-01-04T15:30:00Z,29.6350,-93.6417,2.0,189.044765,6.997006503,-99999.0,'11133222,11111222,99999999' 
TABS,ioos:station:wmo:42051:1,2006-01-04T16:00:00Z,29.6350,-93.6417,2.0,179.9997895,4.0,-99999.0,'11133222,11111222,99999999' 
TABS,ioos:station:wmo:42051:1,2006-01-04T16:30:00Z,29.6350,-93.6417,2.0,227.9954505,5.006086296,-99999.0,'11133222,11111222,99999999' 
TABS,ioos:station:wmo:42051:1,2006-01-04T17:00:00Z,29.6350,-93.6417,2.0,179.9997895,4.0,-99999.0,'11133222,11111222,99999999' 
TABS,ioos:station:wmo:42051:1,2006-01-04T17:30:00Z,29.6350,-93.6417,2.0,224.9996843,2.998132752,-99999.0,'11133222,11111222,99999999' 